軌道要素
Epoch 2022 Aug. 9.0 TT = JDT 2459800.5
T 2023 Jan. 31.09954 TT Rudenko
q 0.1164209 (2000.0) P Q
n 0.18686649 Peri. 14.74882 -0.20316813 -0.50070117
a 3.0300405 Node 93.95681 +0.79106511 -0.59035859
e 0.9615778 Incl. 57.50628 +0.57700842 +0.63306799
P 5.27
From 1112 observations 1986 Sept. 5-2022 Aug. 24, mean residual 1".3.
Nongravitational parameters A1 = -0.01, A2 = -0.0002.
|